SL-16 DEB, 20629

Orbit data source: Space-Track

SL-16 DEB, 20629 is space debris in LEO originally from a launch on Tue, 22 May 1990 UTC launched from the Tyuratam Missile And Space Complex (TTMTR). Debris objects in space refer to the collection of defunct objects orbiting the Earth. Examples of debris include non-operational satellites, rocket bodies, and fragments generated from explosions, collisions, or faulty payload assembly.

Loading next visibility...
Identifier
20629, 1990-046F
Orbit
LEO
Country
Flag of CISCIS
Related business
Manufacturer
Yuzhnoe
Mission
Spacecraft
Bus & Motor
SEP MOTOR COVER, Unknown motor
Mass
~0 kg wet, ~1 kg dry
Launch date (UTC)
1990-05-22 (36 years ago)
Launch vehicle
Unknown
Launch site
Tyuratam Missile And Space Complex (TTMTR)
Object type
Payload
Rocket body
Debris
Shape & HBR
Unknown shape, 0.1 m
Radar Cross Section
Medium (>0.1 m² and <1 m²)

Expand to show TLE details & history
Last TLE update: 10 hours ago

TLE from 10 hours ago
0 SL-16 DEB
1 20629U 90046F   26165.74372354  .00000075  00000-0  10816-3 0  9994
2 20629  71.0205 166.7098 0196509  67.7092 104.2419 13.74162555807447
Epoch: 2026-06-14T17:50Z
TLE epoch observation values (Epoch: 2026-06-14T17:50:57.713Z)
Latitude
5.48795°
Longitude
174.04543°
Altitude
1,024.729 km
Speed
7.321 km/s
True Right ascension
22h 59m 18s
True Declination
5° 27' 23"
Sunlit
Object was in daylight at epoch
Visualization orbit readout
Latitude
Unknown
Longitude
Unknown
Altitude
Unknown
Speed
Unknown
Apparent Right ascension
Unknown
Apparent Declination
Unknown
Sunlit
N/A
Visualization observer readout
Local Sidereal Time
14:01:53
Azimuth
Unknown
Elevation
Unknown
Doppler factor
Unknown
Orbital elements
Apogee altitude
1,127.272 km
Perigee altitude
837.981 km
Semi-major axis
7,360.764 km
Eccentricity
0.01965
Inclination
71.0205°
RAAN
166.7098°
Arg. of periapsis
67.7092°
True anomaly
106.41089°
Mean anomaly
104.2419°
Eccentric anomaly
105.32776°
Mean motion
3.43684 °/min
Orbital period
104.75 mins
BSTAR
0.00010816
Loading maneuver chart data...
Computing Atmospheric mass density...
Loading historical data...
Loading historical data...
Loading historical data...
Loading historical data...
Loading historical data...
Loading historical data...
Loading historical data...
Other satellites on launch #46 in the year 1990 (1990-05-22 UTC)

Documentation

Showing up to 5 results
|